Regional Weather Roundup
Issued by NWS

Home | Current Version | Previous Version | Text Only | Print | Product List | Glossary Off
Versions: 1 2 3 4 5 6 7 8 9 10 11 12 13 14 15 16 17 18 19 20 21 22 23 24 25 26 27 28 29 30 31 32 33 34 35 36 37 38 39 40 41 42 43 44 45 46 47 48 49 50

000
ASUS45 KTFX 260619
RWRMT
MONTANA HOURLY WEATHER ROUNDUP
NATIONAL WEATHER SERVICE GREAT FALLS MT
1119 PM MST TUE NOV 25 2014

NOTE: "FAIR" INDICATES FEW OR NO CLOUDS BELOW 12000 FEET WITH NO
SIGNIFICANT WEATHER AND/OR OBSTRUCTIONS TO VISIBILITY.

* THESE STATIONS ARE NOT UNDER NWS QUALITY CONTROL. THEY DO NOT
   REPORT WEATHER SUCH AS PRECIPITATION OR FOG.

MTZ001>007-043-260700-
WEST OF THE DIVIDE
CITY           SKY/WX    TMP DP  RH WIND       PRES   REMARKS
KALISPELL      CLOUDY    34  32  92 NE3       30.15S
MISSOULA       LGT SNOW  32  32 100 E3        30.16F VSB 1 1/4
BUTTE          LGT SNOW  27  25  92 N3        30.09F VSB 1
MULLAN PASS    FRZ RAIN  28  25  89 VRB5      30.05S VSB 1    WCI  22
* ESSEX        N/A       31  28  89 S1         N/A
* EUREKA APT   CLOUDY    34  30  85 CALM      30.18R
* LIBBY APT    CLOUDY    34  30  85 CALM      30.18F
* LINCOLN      N/A       29  27  92 S3         N/A
* LOOKOUT PASS N/A       29  29 100 N/A        N/A
* PLAINS APT   CLOUDY    34  28  79 N/A        N/A
* POLSON       N/A       31  31 100 N/A        N/A
* RONAN APT    CLOUDY    32  30  92 N/A        N/A
* SEELEY LAKE  N/A       30  29  96 N/A        N/A
* THOMP F APT  CLOUDY    32  30  92 NE2G8      N/A
* YAAK HILL    N/A       32  30  92 N/A        N/A
$$

MTZ008-052>055-260700-
SOUTHWEST MONTANA
CITY           SKY/WX    TMP DP  RH WIND       PRES   REMARKS
BOZEMAN        LGT SNOW  28  27  96 NW6       30.14S VSB 1 1/4 WCI  21
DILLON         LGT SNOW  30  28  92 NE6       30.09S VSB 2 1/2 WCI  24
* W YELLOWSTON PTCLDY    31  30  96 SW3G9      N/A
* ENNIS APT    CLOUDY    28  28 100 N/A        N/A
* THREE FORKS  CLOUDY    30   3  31 N/A        N/A
* BOULDER HILL N/A       26  23  88 N/A        N/A
* MONIDA PASS  N/A       32  32 100 E1         N/A
* RAYNOLDS PAS N/A       27 -10  19 NE2        N/A
* WHITEHALL    N/A       31  30  96 E2         N/A
* WISE RIVER   N/A       28  27  96 SE6        N/A   WCI  21
$$

MTZ009>010-012-014-046-048-049-054-260700-
EAST SLOPES AND CENTRAL MONTANA
CITY           SKY/WX    TMP DP  RH WIND       PRES   REMARKS
CUT BANK       CLOUDY    30  19  64 SE5       30.12R WCI  25
GREAT FALLS    CLOUDY    30  25  82 S9        30.13S WCI  22
HELENA         LGT SNOW  32  30  92 SE3       30.14R VSB 1 1/2
MALMSTROM AFB  CLOUDY    30  27  89 S5        30.16S WCI  25
* CONRAD       CLOUDY    28  25  89 CALM       N/A
* DEARBORN     N/A       32  26  79 SW2        N/A
* EAST GLACIER N/A       25  19  78 NE2        N/A
* MONARCH      N/A       23  19  85 S6         N/A   WCI  16
* PENDROY      N/A       27  25  92 N/A        N/A
* ROGERS PASS  N/A       27  24  88 SE6        N/A   WCI  20
* SAINT MARY   N/A       27  20  75 SE2        N/A
* SWEET GRASS  N/A       29  22  75 W4         N/A
* WHITE SULPH  N/A       24  23  96 SE1        N/A
$$

MTZ011-013-016-021-035-040-045-047-050-051-260700-
NORTH CENTRAL MONTANA
CITY           SKY/WX    TMP DP  RH WIND       PRES   REMARKS
HAVRE          CLOUDY    28  25  89 NW5       30.18R WCI  22
LEWISTOWN      CLOUDY    28  23  81 SW12      30.13S WCI  18
* N BAR RANCH  CLOUDY    27  21  78 NW12G20   30.12R WCI  16
* CHINOOK      CLOUDY    28  25  89 W8        30.19R WCI  20
* FORT BENTON  CLOUDY    32  25  75 CALM      30.20R
* CHESTER      N/A       30  24  78 N/A        N/A
* DENTON       N/A       29  23  78 W8         N/A   WCI  21
* GEYSER       N/A       27  21  78 SW6        N/A   WCI  20
* JUDITH GAP   N/A       26  20  78 W8         N/A   WCI  18
* LOMA         N/A       32  26  79 NW4        N/A
$$

MTZ017>020-022>027-061-062-260700-
NORTHEAST MONTANA
CITY           SKY/WX    TMP DP  RH WIND       PRES   REMARKS
GLASGOW        CLOUDY    21  16  81 NE8       30.20R WCI  11
GLENDIVE       CLOUDY    25  19  78 NW10      30.19R WCI  15
JORDAN         CLOUDY    27  23  85 CALM      30.18R
SIDNEY         CLOUDY    21  18  88 N5        30.21R WCI  14
WOLF POINT     LGT SNOW  25  18  75 N9        30.22R WCI  16
* BEAVER HILL  N/A       22  19  88 N11        N/A   WCI  11
* CIRCLE       N/A       24  21  88 N/A        N/A
* LINDSAY DVD  N/A       20  19  96 NW7        N/A   WCI  11
* NAVAJO       N/A       13  11  92 N10        N/A
* PLENTYWOOD A MOCLDY    14  10  84 N/A       30.18R
* POPLAR APT   CLOUDY    21  18  88 N/A       30.21R
* SACO         N/A       23  18  81 NW5        N/A   WCI  16
* SCOBEY APT   MOCLDY    16   7  67 NW7        N/A   WCI   6
$$

MTZ028>042-056>058-260700-
SOUTHCENTRAL AND SOUTHEAST MONTANA
CITY           SKY/WX    TMP DP  RH WIND       PRES   REMARKS
BAKER          CLOUDY    25  21  85 NW10      30.13R WCI  15
BILLINGS       CLOUDY    34  18  52 NW7       30.16R WCI  28
LIVINGSTON     LGT SNOW  28  27  96 E5        30.13S VSB 1    WCI  22
MILES CITY     CLOUDY    27  21  78 N6        30.18R WCI  20
* BIG TIMBER A CLOUDY    27  25  92 CALM      30.16R VSB 1
* FORSYTH APT  CLOUDY    28  25  89 N3        30.18S
* LAUREL APT   CLOUDY    32  18  56 N/A        N/A
* ALZADA       N/A       28  24  85 NW7        N/A   WCI  21
* HYSHAM       N/A       27  22  81 N/A        N/A
* LAME DEER    N/A       24  23  96 NW4        N/A
* REED POINT   N/A       29  28  96 NW4        N/A
* ROSCOE HILL  N/A       23  20  88 SW1        N/A
$$

REGIONAL REPORTS...DAKOTAS
CITY           SKY/WX    TMP DP  RH WIND       PRES   REMARKS
WILLISTON      CLOUDY    16  10  77 NE7       30.21R WCI   6
DICKINSON      CLOUDY    19  16  88 N9        30.10R WCI   8
BEACH          CLOUDY    19  19 100 N9        30.15R WCI   8
CROSBY         LGT SNOW  12  10  92 SE5       30.20R WCI   4
TIOGA          CLOUDY    10   9  96 E6        30.19R
BISMARCK       CLOUDY    18  12  77 N10       30.13R WCI   6
GRAND FORKS    LGT SNOW  10   7  88 N16       30.16R WCI  -7
FARGO          FOG       19  16  88 N20       30.07R WCI   3
BUFFALO SD     PTCLDY    25  19  78 N15       30.04R WCI  13
RAPID CITY     CLOUDY    30  23  75 N32G43    30.04R WCI  14
$$

REGIONAL REPORTS...WYOMING/IDAHO/WASHINGTON
CITY           SKY/WX    TMP DP  RH WIND       PRES   REMARKS
GILLETTE       CLOUDY    27  25  92 NW20      30.09R WCI  13
SHERIDAN       CLOUDY    28  21  75 NW18      30.14R WCI  15
CODY           CLOUDY    25  23  92 CALM      30.14S VSB 3
YELLOWSTONE LA MOCLDY    30  27  89 CALM      30.08R
SALMON         CLOUDY    34  32  92 CALM      30.13S VSB 2
MULLAN PASS    FRZ RAIN  28  25  89 VRB5      30.05S VSB 1    WCI  22
SAND POINT     LGT RAIN  32  32 100 CALM      30.19F
SPOKANE        LGT SNOW  34  34 100 N5        30.16S VSB 1/2  WCI  29
$$

REGIONAL REPORTS...ALBERTA
CITY           SKY/WX    TMP DP  RH WIND       PRES   REMARKS
CALGARY        LGT SNOW  23  21  92 S3        30.11S
LETHBRIDGE     CLOUDY    28  27  96 VRB5      30.14S WCI  22
MEDICINE HAT   CLOUDY    25  21  85 N5        30.19R WCI  19
EDMONTON       CLOUDY    16  12  84 SE5       30.17R WCI   8
WATERTON GATE  N/A       27  21  78 NE2        N/A
CARDSTON       N/A       25  23  92 SE1        N/A
MILK RIVER     N/A       27  25  92 NW1        N/A
$$

REGIONAL REPORTS...SASKATCHEWAN
CITY           SKY/WX    TMP DP  RH WIND       PRES   REMARKS
SWIFT CURRENT  LGT SNOW  12   9  88 SE7       30.16S WCI   1
REGINA         LGT SNOW   7   1  76 N12       30.25R WCI  -9
VAL MARIE      N/A       21  19  92 W2         N/A
ASSINIBOIA     N/A        9   5  84 NW3        N/A
CORONACH       N/A       12  10  92 NW8        N/A

$$



USA.gov is the U.S. government's official web portal to all federal, state and local government web resources and services.